TRA38C GMMX-LEMG

Flight info

Callsign TRA38C
Flight time 1h 11m
Altitude 34000
Route MABAP UR722 SAK UG5 KORIS L27 VJF
Aircraft B738/M-SDE2E3FGHIRWXY/LB1

Departure

Time 2026-05-04 06:40
Airport Marrakesh Menara Airport (GMMX)

Arrival

Time 2026-05-04 07:51
Airport Málaga-Costa del Sol Airport (LEMG)
Time Latitude Longitude Altitude Speed Heading
2026-05-04 06:25 31.60355 -8.02633 1543 ft 0 kts 186°
2026-05-04 06:36 31.60421 -8.02625 1543 ft 3 kts 186°
2026-05-04 06:37 31.60432 -8.02624 1543 ft 3 kts 193°
2026-05-04 06:37 31.60420 -8.02640 1543 ft 3 kts 256°
2026-05-04 06:37 31.60425 -8.02659 1543 ft 2 kts 315°
2026-05-04 06:37 31.60446 -8.02662 1543 ft 5 kts 23°
2026-05-04 06:38 31.60443 -8.02609 1543 ft 10 kts 117°
2026-05-04 06:38 31.60423 -8.02506 1543 ft 16 kts 98°
2026-05-04 06:40 31.60857 -8.04953 2282 ft 175 kts 280°
2026-05-04 06:40 31.61123 -8.06354 3286 ft 173 kts 280°
2026-05-04 06:40 31.61193 -8.07674 4424 ft 159 kts 269°
2026-05-04 06:40 31.61197 -8.09013 5005 ft 171 kts 271°
2026-05-04 06:41 31.61274 -8.10438 5215 ft 179 kts 275°
2026-05-04 06:41 31.61405 -8.11927 5315 ft 192 kts 276°
2026-05-04 06:41 31.61564 -8.13603 5629 ft 222 kts 277°
2026-05-04 06:41 31.61744 -8.15532 5970 ft 251 kts 276°
2026-05-04 06:42 31.61756 -8.17610 6781 ft 256 kts 266°
2026-05-04 06:42 31.61553 -8.19693 7705 ft 259 kts 262°
2026-05-04 06:42 31.61242 -8.21786 8596 ft 262 kts 261°
2026-05-04 06:44 31.72260 -8.26720 12817 ft 362 kts
2026-05-04 06:44 31.74777 -8.26283 13485 ft 370 kts
2026-05-04 06:44 31.77336 -8.25839 14264 ft 373 kts
2026-05-04 06:45 31.79879 -8.25395 15013 ft 378 kts
2026-05-04 06:45 31.82491 -8.24943 15768 ft 381 kts
2026-05-04 06:45 31.85126 -8.24485 16498 ft 385 kts
2026-05-04 06:45 31.87797 -8.24019 17214 ft 389 kts
2026-05-04 06:46 31.90479 -8.23550 17905 ft 393 kts
2026-05-04 06:46 31.93198 -8.23073 18573 ft 397 kts
2026-05-04 06:46 31.95943 -8.22592 19209 ft 401 kts
2026-05-04 06:46 31.98721 -8.22104 19842 ft 405 kts
2026-05-04 06:48 32.18859 -8.18646 23745 ft 431 kts
2026-05-04 06:48 32.21848 -8.18163 24230 ft 435 kts
2026-05-04 06:49 32.24852 -8.17677 24719 ft 438 kts
2026-05-04 06:50 32.46421 -8.14174 27875 ft 457 kts
2026-05-04 06:51 32.49577 -8.13659 28269 ft 460 kts
2026-05-04 06:51 32.52752 -8.13140 28646 ft 463 kts
2026-05-04 06:51 32.55958 -8.12615 29025 ft 465 kts
2026-05-04 06:51 32.59123 -8.12097 29416 ft 467 kts
2026-05-04 06:52 32.62334 -8.11570 29914 ft 465 kts
2026-05-04 06:52 32.65543 -8.11044 30405 ft 464 kts
2026-05-04 06:52 32.68731 -8.10521 30879 ft 463 kts
2026-05-04 06:52 32.71920 -8.09997 31368 ft 462 kts
2026-05-04 06:53 32.75103 -8.09481 31854 ft 460 kts
2026-05-04 06:53 32.78256 -8.08969 32280 ft 460 kts
2026-05-04 06:53 32.81428 -8.08453 32730 ft 459 kts
2026-05-04 06:53 32.84593 -8.07937 33168 ft 457 kts
2026-05-04 06:54 32.87694 -8.07431 33652 ft 455 kts
2026-05-04 06:54 32.90811 -8.06794 34014 ft 460 kts
2026-05-04 06:54 32.96979 -8.04267 34096 ft 475 kts 19°
2026-05-04 06:55 33.02774 -8.00476 34105 ft 474 kts 24°
2026-05-04 06:55 33.08497 -7.96606 34107 ft 474 kts 24°
2026-05-04 06:57 33.31565 -7.81362 34111 ft 475 kts 23°
2026-05-04 06:58 33.37342 -7.77528 34111 ft 475 kts 24°
2026-05-04 06:58 33.43082 -7.73708 34101 ft 476 kts 23°
2026-05-04 06:59 33.48872 -7.69853 34093 ft 476 kts 23°
2026-05-04 06:59 33.54663 -7.66041 34085 ft 474 kts 21°
2026-05-04 07:01 33.78205 -7.51849 34081 ft 474 kts 21°
2026-05-04 07:02 33.84088 -7.48277 34080 ft 474 kts 20°
2026-05-04 07:02 33.89987 -7.44708 34079 ft 474 kts 21°
2026-05-04 07:03 33.95865 -7.41116 34077 ft 474 kts 21°
2026-05-04 07:03 34.01704 -7.37537 34075 ft 475 kts 21°
2026-05-04 07:04 34.07607 -7.33914 34080 ft 476 kts 20°
2026-05-04 07:04 34.13518 -7.30283 34088 ft 476 kts 20°
2026-05-04 07:05 34.19423 -7.26653 34097 ft 476 kts 20°
2026-05-04 07:05 34.25290 -7.23036 34085 ft 477 kts 20°
2026-05-04 07:06 34.34150 -7.17588 34089 ft 476 kts 20°
2026-05-04 07:07 34.40065 -7.13944 34089 ft 477 kts 20°
2026-05-04 07:09 34.63676 -6.99304 34086 ft 477 kts 20°
2026-05-04 07:09 34.69610 -6.95671 34085 ft 478 kts 20°
2026-05-04 07:10 34.75505 -6.92050 34084 ft 478 kts 20°
2026-05-04 07:12 34.99263 -6.77427 34078 ft 479 kts 20°
2026-05-04 07:12 35.05206 -6.73755 34075 ft 479 kts 20°
2026-05-04 07:13 35.11115 -6.70097 34074 ft 479 kts 19°
2026-05-04 07:13 35.17051 -6.66423 34072 ft 479 kts 19°
2026-05-04 07:14 35.31935 -6.57162 34067 ft 481 kts 19°
2026-05-04 07:15 35.37850 -6.53463 34063 ft 481 kts 19°
2026-05-04 07:15 35.43811 -6.49733 34063 ft 481 kts 19°
2026-05-04 07:16 35.49738 -6.45917 34061 ft 483 kts 20°
2026-05-04 07:16 35.55677 -6.42030 34059 ft 483 kts 20°
2026-05-04 07:17 35.61564 -6.38170 34056 ft 482 kts 20°
2026-05-04 07:17 35.67492 -6.34277 34055 ft 483 kts 20°
2026-05-04 07:18 35.73414 -6.30387 34053 ft 483 kts 20°
2026-05-04 07:18 35.79349 -6.26496 34054 ft 483 kts 20°
2026-05-04 07:19 35.85286 -6.22608 34053 ft 483 kts 19°
2026-05-04 07:19 35.91251 -6.18787 34054 ft 483 kts 19°
2026-05-04 07:20 35.97162 -6.14982 33888 ft 477 kts 19°
2026-05-04 07:20 36.00052 -6.13119 33873 ft 461 kts 19°
2026-05-04 07:20 36.02879 -6.11290 33663 ft 462 kts 19°
2026-05-04 07:22 36.23074 -5.97345 30000 ft 483 kts 36°
2026-05-04 07:22 36.25435 -5.94358 29449 ft 488 kts 46°
2026-05-04 07:23 36.27458 -5.90962 28926 ft 489 kts 54°
2026-05-04 07:23 36.29187 -5.87334 28401 ft 489 kts 59°
2026-05-04 07:23 36.30774 -5.83628 27878 ft 487 kts 60°
2026-05-04 07:23 36.32401 -5.79950 27357 ft 486 kts 60°
2026-05-04 07:24 36.34075 -5.76308 26826 ft 484 kts 59°
2026-05-04 07:24 36.35784 -5.72731 26310 ft 482 kts 58°
2026-05-04 07:24 36.37472 -5.69203 25784 ft 480 kts 59°
2026-05-04 07:24 36.39164 -5.65639 25262 ft 478 kts 59°
2026-05-04 07:25 36.40833 -5.62109 24742 ft 475 kts 59°
2026-05-04 07:26 36.49820 -5.37084 21109 ft 415 kts 95°
2026-05-04 07:27 36.49604 -5.33649 20660 ft 394 kts 102°
2026-05-04 07:27 36.49185 -5.30318 20227 ft 389 kts 105°
2026-05-04 07:27 36.48690 -5.27025 19786 ft 386 kts 106°
2026-05-04 07:27 36.48218 -5.23759 19351 ft 383 kts 105°
2026-05-04 07:28 36.47769 -5.20511 18920 ft 380 kts 105°
2026-05-04 07:28 36.47340 -5.17287 18490 ft 378 kts 104°
2026-05-04 07:28 36.46943 -5.14057 18067 ft 375 kts 104°
2026-05-04 07:28 36.46541 -5.10871 17641 ft 372 kts 104°
2026-05-04 07:29 36.46132 -5.07711 17218 ft 369 kts 104°
2026-05-04 07:29 36.45727 -5.04617 16807 ft 366 kts 105°
2026-05-04 07:29 36.45318 -5.01515 16384 ft 364 kts 105°
2026-05-04 07:29 36.44909 -4.98421 15962 ft 361 kts 105°
2026-05-04 07:30 36.44502 -4.95356 15544 ft 359 kts 104°
2026-05-04 07:30 36.44097 -4.92310 15133 ft 356 kts 104°
2026-05-04 07:30 36.43695 -4.89292 14736 ft 354 kts 104°
2026-05-04 07:30 36.43294 -4.86283 14327 ft 351 kts 104°
2026-05-04 07:31 36.42902 -4.83336 13920 ft 349 kts 104°
2026-05-04 07:31 36.42507 -4.80371 13588 ft 345 kts 104°
2026-05-04 07:33 36.40575 -4.60423 11239 ft 325 kts 101°
2026-05-04 07:33 36.40318 -4.57713 11126 ft 314 kts 101°
2026-05-04 07:33 36.40084 -4.55064 11029 ft 305 kts 97°
2026-05-04 07:33 36.40332 -4.52484 10924 ft 300 kts 74°
2026-05-04 07:34 36.41283 -4.50235 10736 ft 295 kts 56°
2026-05-04 07:34 36.42564 -4.48224 10373 ft 296 kts 49°
2026-05-04 07:34 36.43963 -4.46362 10072 ft 295 kts 44°
2026-05-04 07:34 36.45429 -4.44588 9783 ft 294 kts 43°
2026-05-04 07:35 36.46662 -4.42620 9485 ft 292 kts 63°
2026-05-04 07:35 36.47194 -4.40202 9229 ft 285 kts 88°
2026-05-04 07:35 36.46944 -4.37842 8934 ft 279 kts 109°
2026-05-04 07:35 36.46170 -4.35642 8635 ft 274 kts 122°
2026-05-04 07:36 36.45096 -4.33758 8456 ft 264 kts 137°
2026-05-04 07:36 36.43721 -4.32323 8302 ft 256 kts 142°
2026-05-04 07:38 36.35750 -4.21264 7259 ft 242 kts 136°
2026-05-04 07:38 36.34645 -4.19736 7114 ft 241 kts 136°
2026-05-04 07:38 36.33533 -4.18196 6968 ft 240 kts 136°
2026-05-04 07:38 36.32417 -4.16650 6822 ft 240 kts 136°
2026-05-04 07:39 36.31306 -4.15109 6676 ft 239 kts 136°
2026-05-04 07:39 36.30196 -4.13575 6531 ft 239 kts 136°
2026-05-04 07:39 36.29091 -4.12043 6385 ft 238 kts 134°
2026-05-04 07:39 36.28304 -4.10253 6225 ft 244 kts 108°
2026-05-04 07:40 36.28269 -4.08126 6039 ft 249 kts 79°
2026-05-04 07:40 36.29013 -4.06215 5845 ft 247 kts 51°
2026-05-04 07:40 36.30273 -4.04828 5718 ft 246 kts 36°
2026-05-04 07:40 36.31777 -4.03898 5545 ft 240 kts 11°
2026-05-04 07:41 36.33403 -4.03920 5414 ft 232 kts 342°
2026-05-04 07:41 36.34810 -4.04828 5197 ft 226 kts 320°
2026-05-04 07:41 36.35987 -4.06083 5044 ft 221 kts 313°
2026-05-04 07:41 36.37044 -4.07449 4900 ft 219 kts 308°
2026-05-04 07:42 36.38006 -4.08901 4762 ft 217 kts 305°
2026-05-04 07:42 36.38977 -4.10303 4627 ft 217 kts 308°
2026-05-04 07:42 36.40001 -4.11706 4491 ft 216 kts 309°
2026-05-04 07:42 36.41003 -4.13071 4360 ft 216 kts 309°
2026-05-04 07:43 36.42009 -4.14444 4228 ft 214 kts 308°
2026-05-04 07:43 36.43004 -4.15816 4097 ft 214 kts 308°
2026-05-04 07:43 36.43993 -4.17186 3967 ft 213 kts 308°
2026-05-04 07:43 36.44978 -4.18551 3837 ft 212 kts 308°
2026-05-04 07:44 36.45963 -4.19917 3707 ft 211 kts 308°
2026-05-04 07:44 36.46939 -4.21273 3578 ft 211 kts 309°
2026-05-04 07:44 36.47918 -4.22624 3449 ft 210 kts 309°
2026-05-04 07:44 36.48895 -4.23977 3321 ft 210 kts 309°
2026-05-04 07:45 36.49851 -4.25304 3194 ft 208 kts 308°
2026-05-04 07:45 36.50811 -4.26639 3068 ft 207 kts 308°
2026-05-04 07:45 36.51773 -4.27977 2941 ft 207 kts 308°
2026-05-04 07:45 36.52730 -4.29308 2814 ft 206 kts 308°
2026-05-04 07:46 36.53686 -4.30639 2688 ft 206 kts 309°
2026-05-04 07:46 36.54609 -4.31924 2570 ft 192 kts 308°
2026-05-04 07:46 36.55456 -4.33108 2463 ft 174 kts 308°
2026-05-04 07:46 36.56226 -4.34177 2330 ft 158 kts 308°
2026-05-04 07:47 36.56950 -4.35185 2237 ft 157 kts 308°
2026-05-04 07:47 36.57679 -4.36200 2151 ft 157 kts 308°
2026-05-04 07:47 36.58397 -4.37202 2060 ft 157 kts 308°
2026-05-04 07:49 36.63251 -4.44013 942 ft 150 kts 309°
2026-05-04 07:49 36.63945 -4.44970 774 ft 149 kts 310°
2026-05-04 07:49 36.64626 -4.45909 602 ft 148 kts 310°
2026-05-04 07:50 36.65319 -4.46859 406 ft 148 kts 310°
2026-05-04 07:50 36.66005 -4.47803 235 ft 145 kts 309°
2026-05-04 07:50 36.66654 -4.48737 72 ft 141 kts 309°
2026-05-04 07:50 36.67227 -4.49557 60 ft 89 kts 313°
2026-05-04 07:51 36.67449 -4.49868 60 ft 23 kts 312°
2026-05-04 07:51 36.67525 -4.49969 60 ft 19 kts 313°
2026-05-04 07:51 36.67613 -4.50086 60 ft 19 kts 313°
2026-05-04 07:51 36.67726 -4.50238 60 ft 25 kts 328°
2026-05-04 07:52 36.67773 -4.50161 60 ft 21 kts 112°
2026-05-04 07:52 36.67759 -4.49997 60 ft 13 kts 75°
2026-05-04 07:52 36.67729 -4.49842 60 ft 22 kts 134°
2026-05-04 07:52 36.67667 -4.49771 60 ft 19 kts 138°
2026-05-04 07:53 36.67618 -4.49709 60 ft 9 kts 129°
2026-05-04 07:54 36.67548 -4.49330 60 ft 0 kts 112°
2026-05-04 07:55 36.67548 -4.49329 60 ft 0 kts 112°
2026-05-04 07:57 36.67548 -4.49328 60 ft 0 kts 112°